Total_Precipitation_Accumulation
0.98 0.93 0.89 0.79 0.83 0.96 1.20 1.41 1.76 1.50 1.01 0.74 0.72 0.65 0.63 0.57 0.55 0.57 0.51 0.44 0.39 0.34 0.38 0.34 0.33 0.46 0.74 1.01 1.26 1.41 1.62 1.93 2.06 2.25 2.24 2.33 2.38 2.30
0.81 0.90 0.88 0.84 0.93 1.02 1.12 1.19 1.47 1.67 1.34 0.76 0.80 0.86 0.84 0.70 0.56 0.43 0.34 0.41 0.43 0.36 0.31 0.31 0.28 0.31 0.35 0.44 0.57 0.72 0.92 1.18 1.54 1.93 2.08 2.06 2.04 2.29
0.52 0.69 0.72 0.74 0.88 0.98 1.09 1.29 1.40 1.52 1.37 0.72 0.59 0.51 0.43 0.34 0.26 0.27 0.25 0.20 0.18 0.26 0.28 0.30 0.33 0.34 0.33 0.36 0.42 0.50 0.62 0.68 0.79 1.15 1.66 1.98 2.29 2.15
0.34 0.50 0.50 0.70 0.84 0.88 1.01 1.04 1.03 0.98 1.14 0.72 0.41 0.37 0.30 0.26 0.25 0.32 0.31 0.36 0.39 0.40 0.42 0.35 0.39 0.44 0.44 0.45 0.47 0.50 0.54 0.64 0.73 0.75 0.92 1.41 1.64 1.82
0.46 0.48 0.43 0.56 0.60 0.57 0.64 0.67 0.73 0.88 1.01 1.10 0.70 0.54 0.40 0.37 0.40 0.44 0.41 0.38 0.37 0.52 0.59 0.58 0.57 0.60 0.62 0.58 0.57 0.66 0.77 0.80 0.84 0.89 1.04 1.09 1.21 1.48
0.63 0.56 0.56 0.56 0.52 0.56 0.67 0.73 0.82 0.99 1.02 0.98 0.90 0.72 0.55 0.46 0.59 0.55 0.47 0.47 0.49 0.46 0.58 0.61 0.66 0.64 0.64 0.64 0.64 0.63 0.67 0.76 0.81 0.93 1.11 1.25 1.29 1.24
0.97 0.94 0.82 0.75 0.69 0.69 0.71 0.70 1.00 1.08 1.23 1.36 1.21 1.11 0.97 0.78 0.75 0.75 0.85 0.69 0.55 0.45 0.39 0.46 0.60 0.65 0.69 0.79 0.76 0.73 0.84 1.03 1.08 1.12 1.18 1.38 1.66 1.60
1.31 1.10 1.03 1.10 0.94 0.87 0.85 0.83 0.99 1.29 1.48 1.51 1.41 1.11 0.73 0.72 0.70 0.83 1.05 1.13 0.93 0.43 0.50 0.55 0.81 0.89 0.90 0.91 0.99 0.89 0.97 1.06 1.28 1.48 1.54 1.54 1.51 1.79
1.77 1.65 1.47 1.23 1.35 1.28 1.42 1.40 1.43 1.57 1.52 1.31 1.15 0.99 0.90 0.87 1.21 1.38 1.27 1.35 1.12 0.69 0.75 0.79 0.81 0.81 0.82 0.74 0.92 0.94 0.98 0.93 0.88 0.91 1.08 1.31 1.58 1.76
1.48 1.42 1.47 1.52 1.53 1.47 1.54 1.86 1.64 1.38 1.34 1.35 1.43 1.35 1.40 1.50 1.80 1.99 1.88 1.76 1.40 0.98 0.80 0.93 0.50 0.55 0.54 0.54 0.75 0.73 0.74 0.79 0.80 0.79 0.82 0.91 1.09 1.34
1.45 1.38 1.46 1.37 1.52 1.55 1.62 1.81 1.69 1.55 1.68 1.78 1.84 1.91 1.87 1.74 1.64 1.88 1.97 1.82 1.50 0.80 0.62 0.83 0.58 0.53 0.52 0.47 0.52 0.63 0.57 0.63 0.77 0.82 0.86 0.93 0.95 1.00
1.47 1.30 1.61 1.16 1.45 1.60 1.25 1.08 1.10 1.00 1.22 1.24 1.24 1.24 1.14 1.12 1.42 1.31 1.65 2.39 1.79 1.45 0.68 1.18 0.89 0.80 1.14 0.46 0.42 0.58 0.57 0.57 0.57 0.55 0.56 0.62 0.72 0.76
0.77 0.78 0.83 1.24 1.19 1.09 1.09 1.01 1.16 1.20 1.35 1.12 1.07 1.06 1.01 0.96 0.99 1.14 1.53 2.57 2.86 2.18 1.09 2.19 1.91 0.93 1.41 0.81 0.51 0.56 0.48 0.55 0.65 0.64 0.64 0.64 0.64 0.72
0.67 0.73 1.09 1.49 0.90 0.80 0.85 1.03 1.23 1.15 0.81 0.79 0.97 1.02 0.98 0.98 1.07 1.19 1.32 1.55 1.82 2.18 1.41 1.91 2.80 1.54 1.89 1.44 0.87 0.70 0.66 0.65 0.75 0.74 0.69 0.87 1.13 1.19
0.31 0.61 0.78 0.68 0.63 0.76 1.00 1.00 0.87 0.72 0.97 1.31 1.37 1.37 1.35 1.44 1.48 1.39 1.29 1.25 1.31 1.34 1.46 1.43 1.84 1.70 2.00 1.96 1.35 0.86 1.01 0.95 1.00 1.10 0.98 0.86 0.83 0.88
0.41 0.44 0.33 0.28 0.32 0.36 0.52 0.45 0.31 0.45 0.88 1.21 1.33 1.30 1.41 1.43 1.35 1.40 1.62 1.42 1.52 1.26 1.06 1.00 1.18 1.51 1.70 1.27 1.48 1.25 0.98 1.41 1.31 1.38 1.40 1.02 0.96 0.89
0.36 0.26 0.34 0.29 0.25 0.27 0.22 0.22 0.34 0.60 0.89 0.85 1.06 1.14 1.27 1.42 1.44 1.50 1.82 1.81 1.73 1.29 1.05 0.92 0.91 0.99 1.14 1.30 1.53 1.28 1.40 1.33 1.38 1.73 1.60 1.31 1.34 1.33
0.43 0.28 0.25 0.25 0.39 0.52 0.59 0.68 0.73 0.84 0.81 1.01 1.15 1.23 1.43 1.51 1.66 1.75 1.79 1.67 1.49 1.13 1.03 0.90 0.91 1.04 1.09 0.96 1.16 1.42 1.38 1.52 1.82 1.97 1.94 1.44 1.45 1.65
0.49 0.37 0.37 0.39 0.43 0.45 0.55 0.80 1.02 1.07 1.42 1.72 1.71 1.60 1.62 1.78 1.94 1.95 1.67 1.47 1.25 0.96 0.76 0.72 1.08 1.55 1.79 0.99 0.73 1.13 1.68 1.56 1.42 1.67 1.74 1.51 1.52 1.39
0.61 0.58 0.65 0.68 0.73 0.80 0.86 1.04 1.19 1.27 1.39 1.49 1.71 1.77 1.95 2.17 2.03 1.72 1.37 1.24 1.17 1.04 0.88 0.71 0.82 1.18 2.03 1.75 1.64 1.31 1.31 1.66 1.55 1.55 1.27 1.12 1.28 1.24
0.79 0.90 0.95 1.00 1.05 1.14 1.24 1.42 1.61 1.84 2.02 2.08 1.86 1.98 1.99 2.21 1.88 1.41 1.23 1.05 1.25 1.35 1.17 0.68 0.62 0.96 1.46 1.72 1.69 1.05 1.24 1.33 1.39 1.90 1.64 1.53 1.15 0.98
0.88 1.03 1.10 1.25 1.30 1.39 1.56 1.81 2.04 2.07 2.05 1.98 2.04 2.06 1.88 1.83 1.70 1.34 1.21 1.40 1.20 1.14 1.09 0.91 1.00 1.22 1.40 1.69 1.23 0.89 0.93 0.97 0.96 0.97 1.23 1.72 2.03 2.12
0.97 1.12 1.23 1.35 1.36 1.41 1.58 1.81 2.07 2.01 1.93 2.06 2.00 1.82 1.65 1.54 1.09 1.17 1.21 1.19 1.27 1.42 1.16 1.11 1.03 1.08 1.15 1.23 1.24 1.15 0.93 0.93 0.78 0.73 1.09 1.05 1.14 1.35